SCP
-0 -0 -0 0 0 0 0 0 0 0 0 0 0 0 0 0 0 0 0 0 -0 -0 0 0 0 0 0 0 0 0 0 0 0 0 0 0 0 0 0 0 0 -0 0
-0 -0 0 0 0 0 0 0 0 0 0 0 0 0 0 0 0 0 0 0 -0 -0 -0 0 0 0 0 0 0 0 0 0 0 0 0 0 0 0 0 0 0 0 0
0 -0 0 0 0 0 0 0 0 0 0 0 0 0 0 0 0 0 0 0 0 0 0 0 0 0 0 0 0 0 0 0 0 0 0 0 0 0 0 0 0 0 0
0 0 0 0 0 0 0 0 0 0 0 0 0 0 0 0 0 0 0 0 0 0 0 0 0 0 0 0 0 0 0 0 0 0 0 0 -0 0 0 0 0 0 0
0 0 0 0 0 0 0 0 0 0 0 0 0 0 0 0 0 0 0 0 0 0 0 0 0 0 0 0 0 0 0 0 0 0 0 -0 0 0 0 0 0 0 0
0 -0 -0 0 0 0 0 0 0 0 0 0 0 0 0 0 0 0 0 0 0 0 0 0 0 0 0 0 0 0 0 0 0 -0 -0 0 0 0 0 0 0 0 0
0 -0 -0 0 0 0 0 0 0 0 0 0 0 0 0 0 0 0 0 0 0 0 0 0 0 0 0 0 0 0 0 0 0 -0 0 0 0 1 0 0 0 0 0
0 -0 0 0 0 0 0 0 0 0 0 0 0 0 0 0 0 0 0 0 0 0 0 0 0 0 0 0 0 0 0 0 0 -0 0 0 0 1 0 0 1 1 1
0 0 0 0 0 0 0 0 0 0 0 0 0 0 0 0 0 0 0 0 0 0 0 0 0 0 0 0 0 0 -0 -0 0 0 0 0 0 0 0 0 0 0 1
0 0 0 0 0 0 0 0 0 0 0 0 0 0 0 0 0 0 0 0 0 0 0 0 0 0 -0 -0 -0 -0 -0 -0 -0 -0 0 0 0 0 0 0 0 0 0
0 0 0 0 0 0 0 0 0 0 0 0 0 0 0 0 0 0 0 0 0 0 0 0 0 -0 -0 -0 -0 -0 -0 -0 0 0 0 0 0 0 0 0 0 0 0
0 0 0 0 0 0 0 0 0 0 0 0 0 0 0 0 0 0 0 0 0 0 0 0 0 0 0 0 0 0 0 0 0 0 0 0 0 0 0 0 0 0 0
0 0 0 0 -0 -0 0 0 0 0 0 0 0 0 0 0 0 0 0 0 0 0 0 0 0 0 0 0 0 0 0 0 0 0 0 0 0 0 0 0 0 0 0
0 0 0 0 0 0 0 0 0 0 0 0 0 0 0 0 0 0 0 0 0 0 0 0 0 0 0 0 0 0 0 0 0 0 0 0 0 0 0 0 0 0 0
0 0 0 0 0 0 0 0 0 0 0 0 0 0 0 0 0 0 0 0 0 0 0 0 0 0 0 0 0 0 0 0 0 0 0 0 0 0 0 0 0 0 0
0 0 0 0 0 0 0 0 0 0 0 0 0 0 0 0 0 0 0 0 0 0 0 0 0 0 0 0 0 0 0 0 0 0 0 0 0 -0 0 0 0 0 0
0 0 0 0 0 0 0 0 0 0 0 0 0 0 0 0 0 0 0 0 0 0 0 0 0 0 0 0 0 0 0 0 0 0 0 0 0 0 -0 -0 0 0 0
0 0 0 0 0 0 0 0 0 0 0 0 0 0 0 0 0 0 0 0 0 0 0 0 0 0 0 0 0 0 0 0 0 0 0 0 0 0 0 0 -0 0 0
0 0 0 0 0 0 0 -0 0 0 0 0 0 0 0 0 0 0 0 0 0 0 0 0 0 0 0 0 -0 0 0 0 0 0 0 0 0 0 0 0 0 0 0
0 0 0 0 0 0 0 0 0 0 0 0 0 0 0 0 0 0 0 0 0 0 0 0 0 0 0 0 -0 0 0 -0 0 0 0 0 0 0 0 0 0 0 0
0 0 0 0 0 0 0 0 0 0 0 0 0 0 0 0 0 0 0 0 0 0 0 0 0 0 0 0 0 0 0 0 0 0 0 0 0 -0 0 0 0 0 0
0 0 0 0 0 0 0 0 0 0 0 0 0 0 0 0 0 0 0 0 0 0 0 0 0 0 0 0 0 -0 0 0 0 0 0 0 0 0 -0 0 0 0 0
0 0 0 0 0 0 0 0 0 0 0 0 0 0 0 0 0 0 0 0 0 0 0 0 0 0 0 0 0 0 0 0 0 0 0 0 0 0 0 -0 0 0 0
1 0 0 0 0 0 0 0 0 0 0 0 0 0 0 0 0 0 0 0 0 0 0 0 0 0 0 -0 0 0 0 0 0 0 0 0 0 0 0 0 0 0 0
1 0 0 0 0 0 0 -0 0 0 0 0 0 0 0 0 0 0 0 0 0 0 0 0 0 0 0 0 0 0 0 0 0 0 0 0 0 0 0 0 0 0 0
1 0 0 0 0 0 0 0 0 0 0 0 0 0 0 0 0 0 0 0 0 0 0 0 0 0 0 0 0 0 0 0 0 0 0 0 0 0 0 0 0 0 0
Wind_Speed_500mb
12 7 6 5 6 6 7 7 6 8 9 13 18 19 16 18 17 19 23 26 29 29 28 26 26 23 22 23 21 18 18 19 17 15 14 14 13 15 19 19 19 10 28
7 4 2 3 5 4 4 6 7 10 14 19 18 17 17 16 16 20 25 29 29 29 25 21 21 23 21 22 26 26 24 23 23 22 18 13 10 17 19 18 18 20 24
9 2 3 4 6 6 6 5 6 10 16 16 15 14 14 13 17 22 26 27 24 20 21 21 18 16 16 16 19 22 26 29 26 24 24 18 22 24 27 25 20 21 26
9 7 6 11 8 8 7 7 9 16 21 19 10 14 14 14 18 22 24 24 21 20 19 19 16 16 14 15 16 17 21 25 30 26 20 20 16 30 30 30 23 20 20
8 1 12 9 8 9 6 8 13 19 22 21 15 12 13 15 18 22 22 20 18 15 18 17 19 18 17 16 14 15 15 17 19 26 20 19 13 25 24 29 26 21 23
7 6 13 13 5 5 5 6 12 19 26 26 17 11 12 13 17 19 19 17 13 16 15 16 19 20 20 16 15 14 13 10 11 12 19 23 25 38 31 32 32 30 28
10 6 4 21 5 2 5 6 13 21 26 23 14 7 8 11 15 16 13 13 18 22 22 22 21 19 17 14 15 14 11 5 6 15 19 16 30 36 36 38 36 33 32
6 6 14 17 8 8 3 7 14 22 25 20 13 8 8 11 14 15 16 21 24 25 25 24 22 20 17 15 13 12 10 4 6 15 14 20 22 27 35 22 18 25 30
7 6 7 5 20 15 6 7 13 21 25 20 17 15 14 17 22 21 20 24 28 27 24 23 24 23 22 18 16 12 8 3 1 11 11 6 18 27 20 16 15 17 20
7 8 5 5 6 2 7 13 16 22 29 24 24 23 27 25 31 29 23 31 28 27 27 27 27 28 23 20 24 20 7 12 4 10 6 10 14 23 22 15 17 16 19
8 6 7 3 7 10 6 12 15 22 26 29 28 23 24 11 12 11 24 34 28 30 28 31 30 28 27 28 29 30 10 6 12 11 12 12 18 23 18 19 20 21 23
4 6 2 4 5 7 4 8 6 11 9 9 15 15 13 15 18 18 21 36 38 41 39 39 40 34 27 15 18 21 16 11 10 11 17 23 25 24 21 23 24 27 29
4 5 6 3 7 8 4 2 4 7 8 14 18 19 16 12 15 14 13 18 19 26 23 24 22 21 20 15 10 11 13 11 10 11 20 21 21 12 12 12 12 16 20
6 8 8 3 5 8 5 2 6 5 6 7 13 19 17 13 14 15 15 16 19 22 26 27 24 26 22 20 15 13 12 12 11 10 16 20 20 15 12 14 17 21 24
7 7 3 9 9 7 8 4 1 4 5 6 10 17 15 13 12 15 16 16 18 21 23 24 25 26 24 20 15 13 12 12 12 10 13 24 25 19 16 20 25 29 29
12 10 7 6 5 4 7 6 2 2 8 7 7 9 14 12 16 14 17 19 21 20 23 23 26 26 24 22 18 14 12 9 10 10 12 19 23 22 23 27 32 35 33
17 18 12 11 9 11 6 6 1 1 4 3 6 11 12 13 15 19 18 20 23 21 23 23 24 24 22 20 17 13 8 10 7 9 11 16 21 23 22 38 37 34 34
23 18 14 15 7 13 7 5 7 8 6 4 6 7 9 12 18 15 18 21 23 21 22 23 23 23 23 19 16 12 7 6 8 8 11 14 21 20 26 32 44 40 34
31 26 16 11 13 7 13 10 3 14 3 7 9 8 12 10 14 16 17 21 23 20 20 22 22 23 22 22 15 14 11 8 8 9 15 18 20 23 25 27 37 41 33
32 28 26 13 2 5 7 13 7 9 1 11 10 10 12 9 13 16 14 21 22 20 19 22 24 22 21 25 15 17 15 12 13 14 17 19 20 24 27 29 31 28 34
36 32 30 18 12 8 6 4 8 2 8 10 11 14 12 10 11 16 13 17 18 19 21 24 22 22 19 24 20 18 12 14 16 17 20 20 22 25 29 30 30 28 25
41 35 34 26 17 18 8 6 4 7 7 10 10 12 14 12 12 14 15 14 19 16 15 21 20 21 18 21 28 23 17 6 8 18 17 16 19 24 24 27 29 30 28
44 39 39 28 21 25 10 3 4 3 7 7 10 12 12 13 12 14 16 16 15 16 16 19 19 18 18 19 23 16 17 19 32 12 17 21 26 25 26 26 34 30 30
39 36 33 28 24 27 10 8 8 7 2 9 9 12 13 11 11 12 15 15 16 12 16 15 16 14 19 17 20 15 19 23 26 27 22 30 32 32 31 33 34 32 32
34 29 30 22 19 22 12 11 5 5 5 7 8 16 13 12 9 10 12 14 14 12 17 21 22 21 17 20 25 25 27 27 32 31 41 42 41 37 39 37 34 39 39
23 23 27 23 20 21 20 10 5 8 3 3 10 8 9 9 10 13 11 12 14 15 18 20 22 25 26 30 30 29 30 34 39 42 48 52 51 49 45 43 47 49 42
Wind_Direction_500mb
111 360 27 8 337 340 345 345 344 343 344 336 330 328 319 318 329 334 335 334 329 324 317 308 299 292 285 280 280 273 272 263 255 247 259 257 257 250 239 231 219 220 241
84 97 40 32 10 8 357 356 7 8 349 331 336 325 313 323 328 335 339 342 345 345 351 337 308 298 284 279 279 278 277 270 261 256 251 247 283 292 272 249 230 217 243
87 332 348 26 22 21 12 25 11 2 340 348 341 314 322 322 328 337 341 342 344 352 14 10 3 340 325 302 279 275 273 271 269 265 254 249 257 267 290 265 245 232 240
72 51 203 336 7 11 16 17 10 2 358 357 348 314 321 327 334 340 343 349 356 8 14 15 11 11 344 321 307 283 275 274 270 268 263 265 255 251 272 271 257 249 244
112 39 300 316 3 3 13 6 7 359 359 353 343 326 322 327 337 338 343 353 1 10 6 5 356 351 347 337 324 311 290 277 276 266 266 248 244 235 249 266 255 253 250
16 226 275 329 6 343 354 4 0 0 358 349 338 316 315 321 328 333 337 356 357 352 350 342 335 335 335 329 326 322 309 281 271 278 250 255 266 266 273 267 256 246 253
51 103 8 343 330 341 339 352 357 359 355 349 349 345 327 327 332 339 345 338 336 339 338 333 330 332 332 324 317 317 322 285 297 258 265 256 246 260 272 272 254 246 246
42 54 14 334 357 320 327 355 0 358 357 6 16 19 9 341 345 345 342 337 336 337 337 335 338 339 338 333 320 309 302 272 263 267 278 262 235 247 269 276 274 248 245
33 12 23 215 341 354 320 336 355 355 2 15 21 20 12 8 3 4 350 349 339 342 349 348 341 337 332 330 332 311 299 186 26 327 253 240 254 271 273 278 276 257 241
31 21 8 325 164 80 83 354 352 3 17 21 23 22 30 14 2 353 17 330 343 349 348 348 345 343 343 360 2 350 337 117 27 291 254 216 269 267 271 275 269 267 254
340 25 24 143 242 139 82 333 8 3 15 21 6 2 24 11 328 343 317 352 353 0 357 1 357 7 17 8 344 358 30 359 279 260 265 267 285 281 263 264 270 269 266
11 36 32 143 188 182 233 323 346 342 343 18 7 14 8 347 340 359 338 349 355 357 0 349 355 10 359 335 332 343 338 293 282 275 242 268 287 276 273 280 276 272 270
92 66 64 78 159 192 227 262 312 327 359 347 1 16 357 10 343 348 347 339 344 339 339 350 350 342 341 338 325 302 301 310 294 283 255 278 289 270 281 294 306 309 302
99 91 77 144 156 189 199 357 309 349 349 345 359 15 2 0 358 357 346 353 348 345 349 349 345 343 347 337 326 312 308 300 285 277 273 281 304 286 284 291 304 314 314
126 118 157 129 168 184 128 226 262 1 328 10 9 354 21 5 7 354 353 354 350 356 353 350 341 344 344 339 328 312 296 291 294 280 279 292 313 295 293 298 305 311 309
162 145 171 139 122 157 154 156 168 329 332 12 337 351 10 16 8 4 356 357 351 356 356 353 347 348 346 339 337 327 321 312 299 284 274 297 306 329 322 309 305 304 302
186 172 154 147 141 152 155 104 80 194 263 294 318 342 7 9 8 21 358 353 350 358 355 355 353 351 347 350 343 344 355 323 312 287 272 299 318 320 321 323 315 313 300
193 186 148 159 149 104 175 134 137 253 238 298 306 311 345 354 347 11 353 351 356 356 349 356 354 352 350 351 341 348 335 332 310 308 282 291 292 295 310 311 311 310 306
198 195 183 147 146 87 75 158 133 247 141 279 282 295 297 341 345 2 340 347 5 353 351 351 352 351 351 346 335 331 327 310 299 293 290 289 292 299 295 300 303 311 322
203 191 195 171 102 103 94 81 315 297 333 266 271 280 290 308 319 335 347 346 358 350 348 351 349 347 350 343 346 319 300 299 296 287 294 292 289 292 302 296 304 305 302
206 197 201 210 211 196 163 99 325 353 260 271 281 278 279 296 306 321 330 334 340 342 351 352 347 348 352 346 355 338 300 275 294 300 289 301 293 297 297 307 303 298 290
210 203 204 219 207 207 201 179 231 227 259 257 255 267 280 285 301 315 309 324 326 340 337 345 349 352 350 347 356 339 337 231 358 307 304 295 303 300 306 302 299 296 293
205 203 209 224 220 212 201 256 311 329 348 338 308 318 308 297 289 299 304 301 315 337 322 348 342 344 350 354 349 351 349 346 327 328 299 307 287 309 301 312 307 306 293
202 202 204 220 225 222 210 219 215 218 254 285 308 292 288 283 288 299 299 296 297 302 318 332 318 343 337 326 335 322 305 298 306 311 310 309 295 303 304 308 302 300 296
185 198 194 209 222 208 216 193 262 338 309 318 310 304 321 291 308 308 284 284 290 307 292 307 325 315 308 306 306 307 305 300 297 278 295 305 307 304 310 304 295 299 291
172 181 181 203 210 206 219 211 207 227 255 279 284 335 330 302 300 288 288 282 289 294 312 303 294 300 298 294 291 291 295 294 291 291 291 291 295 296 299 297 297 294 282
Wind_Speed_850mb
12 7 6 5 6 6 7 7 6 8 9 13 18 19 16 18 17 19 23 26 29 29 28 26 26 23 22 23 21 18 18 19 17 15 14 14 13 15 19 19 19 10 28
7 4 2 3 5 4 4 6 7 10 14 19 18 17 17 16 16 20 25 29 29 29 25 21 21 23 21 22 26 26 24 23 23 22 18 13 10 17 19 18 18 20 24
9 2 3 4 6 6 6 5 6 10 16 16 15 14 14 13 17 22 26 27 24 20 21 21 18 16 16 16 19 22 26 29 26 24 24 18 22 24 27 25 20 21 26
9 7 6 11 8 8 7 7 9 16 21 19 10 14 14 14 18 22 24 24 21 20 19 19 16 16 14 15 16 17 21 25 30 26 20 20 16 30 30 30 23 20 20
8 1 12 9 8 9 6 8 13 19 22 21 15 12 13 15 18 22 22 20 18 15 18 17 19 18 17 16 14 15 15 17 19 26 20 19 13 25 24 29 26 21 23
7 6 13 13 5 5 5 6 12 19 26 26 17 11 12 13 17 19 19 17 13 16 15 16 19 20 20 16 15 14 13 10 11 12 19 23 25 38 31 32 32 30 28
10 6 4 21 5 2 5 6 13 21 26 23 14 7 8 11 15 16 13 13 18 22 22 22 21 19 17 14 15 14 11 5 6 15 19 16 30 36 36 38 36 33 32
6 6 14 17 8 8 3 7 14 22 25 20 13 8 8 11 14 15 16 21 24 25 25 24 22 20 17 15 13 12 10 4 6 15 14 20 22 27 35 22 18 25 30
7 6 7 5 20 15 6 7 13 21 25 20 17 15 14 17 22 21 20 24 28 27 24 23 24 23 22 18 16 12 8 3 1 11 11 6 18 27 20 16 15 17 20
7 8 5 5 6 2 7 13 16 22 29 24 24 23 27 25 31 29 23 31 28 27 27 27 27 28 23 20 24 20 7 12 4 10 6 10 14 23 22 15 17 16 19
8 6 7 3 7 10 6 12 15 22 26 29 28 23 24 11 12 11 24 34 28 30 28 31 30 28 27 28 29 30 10 6 12 11 12 12 18 23 18 19 20 21 23
4 6 2 4 5 7 4 8 6 11 9 9 15 15 13 15 18 18 21 36 38 41 39 39 40 34 27 15 18 21 16 11 10 11 17 23 25 24 21 23 24 27 29
4 5 6 3 7 8 4 2 4 7 8 14 18 19 16 12 15 14 13 18 19 26 23 24 22 21 20 15 10 11 13 11 10 11 20 21 21 12 12 12 12 16 20
6 8 8 3 5 8 5 2 6 5 6 7 13 19 17 13 14 15 15 16 19 22 26 27 24 26 22 20 15 13 12 12 11 10 16 20 20 15 12 14 17 21 24
7 7 3 9 9 7 8 4 1 4 5 6 10 17 15 13 12 15 16 16 18 21 23 24 25 26 24 20 15 13 12 12 12 10 13 24 25 19 16 20 25 29 29
12 10 7 6 5 4 7 6 2 2 8 7 7 9 14 12 16 14 17 19 21 20 23 23 26 26 24 22 18 14 12 9 10 10 12 19 23 22 23 27 32 35 33
17 18 12 11 9 11 6 6 1 1 4 3 6 11 12 13 15 19 18 20 23 21 23 23 24 24 22 20 17 13 8 10 7 9 11 16 21 23 22 38 37 34 34
23 18 14 15 7 13 7 5 7 8 6 4 6 7 9 12 18 15 18 21 23 21 22 23 23 23 23 19 16 12 7 6 8 8 11 14 21 20 26 32 44 40 34
31 26 16 11 13 7 13 10 3 14 3 7 9 8 12 10 14 16 17 21 23 20 20 22 22 23 22 22 15 14 11 8 8 9 15 18 20 23 25 27 37 41 33
32 28 26 13 2 5 7 13 7 9 1 11 10 10 12 9 13 16 14 21 22 20 19 22 24 22 21 25 15 17 15 12 13 14 17 19 20 24 27 29 31 28 34
36 32 30 18 12 8 6 4 8 2 8 10 11 14 12 10 11 16 13 17 18 19 21 24 22 22 19 24 20 18 12 14 16 17 20 20 22 25 29 30 30 28 25
41 35 34 26 17 18 8 6 4 7 7 10 10 12 14 12 12 14 15 14 19 16 15 21 20 21 18 21 28 23 17 6 8 18 17 16 19 24 24 27 29 30 28
44 39 39 28 21 25 10 3 4 3 7 7 10 12 12 13 12 14 16 16 15 16 16 19 19 18 18 19 23 16 17 19 32 12 17 21 26 25 26 26 34 30 30
39 36 33 28 24 27 10 8 8 7 2 9 9 12 13 11 11 12 15 15 16 12 16 15 16 14 19 17 20 15 19 23 26 27 22 30 32 32 31 33 34 32 32
34 29 30 22 19 22 12 11 5 5 5 7 8 16 13 12 9 10 12 14 14 12 17 21 22 21 17 20 25 25 27 27 32 31 41 42 41 37 39 37 34 39 39
23 23 27 23 20 21 20 10 5 8 3 3 10 8 9 9 10 13 11 12 14 15 18 20 22 25 26 30 30 29 30 34 39 42 48 52 51 49 45 43 47 49 42
Wind_Direction_850mb
111 360 27 8 337 340 345 345 344 343 344 336 330 328 319 318 329 334 335 334 329 324 317 308 299 292 285 280 280 273 272 263 255 247 259 257 257 250 239 231 219 220 241
84 97 40 32 10 8 357 356 7 8 349 331 336 325 313 323 328 335 339 342 345 345 351 337 308 298 284 279 279 278 277 270 261 256 251 247 283 292 272 249 230 217 243
87 332 348 26 22 21 12 25 11 2 340 348 341 314 322 322 328 337 341 342 344 352 14 10 3 340 325 302 279 275 273 271 269 265 254 249 257 267 290 265 245 232 240
72 51 203 336 7 11 16 17 10 2 358 357 348 314 321 327 334 340 343 349 356 8 14 15 11 11 344 321 307 283 275 274 270 268 263 265 255 251 272 271 257 249 244
112 39 300 316 3 3 13 6 7 359 359 353 343 326 322 327 337 338 343 353 1 10 6 5 356 351 347 337 324 311 290 277 276 266 266 248 244 235 249 266 255 253 250
16 226 275 329 6 343 354 4 0 0 358 349 338 316 315 321 328 333 337 356 357 352 350 342 335 335 335 329 326 322 309 281 271 278 250 255 266 266 273 267 256 246 253
51 103 8 343 330 341 339 352 357 359 355 349 349 345 327 327 332 339 345 338 336 339 338 333 330 332 332 324 317 317 322 285 297 258 265 256 246 260 272 272 254 246 246
42 54 14 334 357 320 327 355 0 358 357 6 16 19 9 341 345 345 342 337 336 337 337 335 338 339 338 333 320 309 302 272 263 267 278 262 235 247 269 276 274 248 245
33 12 23 215 341 354 320 336 355 355 2 15 21 20 12 8 3 4 350 349 339 342 349 348 341 337 332 330 332 311 299 186 26 327 253 240 254 271 273 278 276 257 241
31 21 8 325 164 80 83 354 352 3 17 21 23 22 30 14 2 353 17 330 343 349 348 348 345 343 343 360 2 350 337 117 27 291 254 216 269 267 271 275 269 267 254
340 25 24 143 242 139 82 333 8 3 15 21 6 2 24 11 328 343 317 352 353 0 357 1 357 7 17 8 344 358 30 359 279 260 265 267 285 281 263 264 270 269 266
11 36 32 143 188 182 233 323 346 342 343 18 7 14 8 347 340 359 338 349 355 357 0 349 355 10 359 335 332 343 338 293 282 275 242 268 287 276 273 280 276 272 270
92 66 64 78 159 192 227 262 312 327 359 347 1 16 357 10 343 348 347 339 344 339 339 350 350 342 341 338 325 302 301 310 294 283 255 278 289 270 281 294 306 309 302
99 91 77 144 156 189 199 357 309 349 349 345 359 15 2 0 358 357 346 353 348 345 349 349 345 343 347 337 326 312 308 300 285 277 273 281 304 286 284 291 304 314 314
126 118 157 129 168 184 128 226 262 1 328 10 9 354 21 5 7 354 353 354 350 356 353 350 341 344 344 339 328 312 296 291 294 280 279 292 313 295 293 298 305 311 309
162 145 171 139 122 157 154 156 168 329 332 12 337 351 10 16 8 4 356 357 351 356 356 353 347 348 346 339 337 327 321 312 299 284 274 297 306 329 322 309 305 304 302
186 172 154 147 141 152 155 104 80 194 263 294 318 342 7 9 8 21 358 353 350 358 355 355 353 351 347 350 343 344 355 323 312 287 272 299 318 320 321 323 315 313 300
193 186 148 159 149 104 175 134 137 253 238 298 306 311 345 354 347 11 353 351 356 356 349 356 354 352 350 351 341 348 335 332 310 308 282 291 292 295 310 311 311 310 306
198 195 183 147 146 87 75 158 133 247 141 279 282 295 297 341 345 2 340 347 5 353 351 351 352 351 351 346 335 331 327 310 299 293 290 289 292 299 295 300 303 311 322
203 191 195 171 102 103 94 81 315 297 333 266 271 280 290 308 319 335 347 346 358 350 348 351 349 347 350 343 346 319 300 299 296 287 294 292 289 292 302 296 304 305 302
206 197 201 210 211 196 163 99 325 353 260 271 281 278 279 296 306 321 330 334 340 342 351 352 347 348 352 346 355 338 300 275 294 300 289 301 293 297 297 307 303 298 290
210 203 204 219 207 207 201 179 231 227 259 257 255 267 280 285 301 315 309 324 326 340 337 345 349 352 350 347 356 339 337 231 358 307 304 295 303 300 306 302 299 296 293
205 203 209 224 220 212 201 256 311 329 348 338 308 318 308 297 289 299 304 301 315 337 322 348 342 344 350 354 349 351 349 346 327 328 299 307 287 309 301 312 307 306 293
202 202 204 220 225 222 210 219 215 218 254 285 308 292 288 283 288 299 299 296 297 302 318 332 318 343 337 326 335 322 305 298 306 311 310 309 295 303 304 308 302 300 296
185 198 194 209 222 208 216 193 262 338 309 318 310 304 321 291 308 308 284 284 290 307 292 307 325 315 308 306 306 307 305 300 297 278 295 305 307 304 310 304 295 299 291
172 181 181 203 210 206 219 211 207 227 255 279 284 335 330 302 300 288 288 282 289 294 312 303 294 300 298 294 291 291 295 294 291 291 291 291 295 296 299 297 297 294 282